SCP
0 0 0 0 0 0 0 0 0 0 0 0 0 0 0 0 0 0 0 0 0 0 0 0 0 0 0 0 0 0 0 0 0 0 0 0 0 0 0 0 0 0 0
0 0 0 0 0 0 0 0 0 0 0 0 0 0 0 0 0 0 0 0 0 0 0 0 0 0 0 0 0 0 0 0 0 0 0 0 0 0 0 0 0 0 0
0 0 0 0 0 0 0 0 0 0 0 0 0 0 0 0 0 0 0 0 0 0 0 0 0 0 0 0 0 0 0 0 0 0 0 0 0 0 0 0 0 0 0
0 0 0 0 0 0 0 0 0 0 0 0 0 0 0 0 0 0 0 0 0 0 0 0 0 0 0 0 0 0 0 0 0 0 0 0 0 0 0 0 0 0 0
0 0 0 0 0 0 0 0 0 0 0 0 0 0 0 0 0 0 0 0 0 0 0 0 0 0 0 0 0 0 0 0 0 0 0 0 0 0 0 0 0 0 0
0 0 0 0 0 0 0 0 0 0 0 0 0 0 0 0 0 0 0 0 0 0 0 0 0 0 0 0 0 0 0 0 0 0 0 0 0 0 0 0 0 0 0
0 0 0 0 0 0 0 0 0 0 0 0 0 0 0 0 0 0 0 0 0 0 0 0 0 0 0 0 0 0 0 0 0 0 0 0 0 0 0 0 0 0 0
0 0 0 0 0 0 0 0 0 0 0 0 0 0 0 0 0 0 0 0 0 0 0 0 0 0 0 0 0 0 0 0 0 0 0 0 0 0 0 0 0 0 0
0 0 0 0 0 0 0 0 0 0 0 0 0 0 0 0 0 0 0 0 0 0 0 0 0 0 0 0 0 0 0 0 0 0 0 0 0 0 0 0 0 0 0
0 0 0 0 0 0 0 0 0 0 0 0 0 0 0 0 0 0 0 0 0 0 0 0 0 0 0 0 0 0 0 0 0 0 0 0 0 0 0 0 0 0 0
0 0 0 0 0 0 0 0 0 0 0 0 0 0 0 0 0 0 0 0 0 0 0 0 0 0 0 0 0 0 0 0 0 0 0 0 0 0 0 0 0 0 0
0 0 0 0 0 0 0 0 0 0 0 0 0 0 0 0 0 0 0 0 0 0 0 0 0 0 0 0 0 0 0 0 0 0 0 0 0 0 0 0 0 0 0
0 0 0 0 0 0 0 0 0 0 0 0 0 0 0 0 0 0 0 0 0 0 0 0 0 0 0 0 0 0 0 0 0 0 0 0 0 0 0 0 0 0 0
0 0 0 0 0 0 0 0 0 0 0 0 0 0 0 0 0 0 0 0 0 0 0 0 0 0 0 0 0 0 0 0 0 0 0 0 0 0 0 0 0 0 0
0 0 0 0 0 0 0 0 0 0 0 0 0 0 0 0 0 0 0 0 0 0 0 0 0 0 0 0 0 0 0 0 0 0 0 0 0 0 0 0 0 0 0
0 0 0 0 0 0 0 0 0 0 0 0 0 0 0 0 0 0 0 0 0 0 0 0 0 0 0 0 0 0 0 0 0 0 0 0 0 0 0 0 0 0 0
0 0 0 0 0 0 0 0 0 0 0 0 0 0 0 0 0 0 0 0 0 0 0 0 0 0 0 0 0 0 0 0 0 0 0 0 0 0 0 0 0 0 0
0 0 0 0 0 0 0 0 0 0 0 0 0 0 0 0 0 0 0 0 0 0 0 0 0 0 0 0 0 0 0 0 0 0 0 0 0 0 0 0 0 0 0
0 0 0 0 0 0 0 0 0 0 0 0 0 0 0 0 0 0 0 0 0 0 0 0 0 0 0 0 0 0 0 0 0 0 0 0 0 0 0 0 0 0 0
0 0 0 0 0 0 0 0 0 0 0 0 0 0 0 0 0 0 0 0 0 0 0 0 0 0 0 0 0 0 0 0 0 0 0 0 0 0 0 0 0 0 0
0 0 0 0 0 0 0 0 0 0 0 0 0 0 0 0 0 0 0 0 0 0 0 0 0 0 0 0 0 0 0 0 0 0 0 0 0 0 0 0 0 0 0
0 0 0 0 0 0 0 0 0 0 0 0 0 0 0 0 0 0 0 0 0 0 0 0 0 0 0 0 0 0 0 0 0 0 0 0 0 0 0 0 0 0 0
0 0 0 0 0 0 0 0 0 0 0 0 0 0 0 0 0 0 0 0 0 0 0 0 0 0 0 0 0 0 0 0 0 0 0 0 0 0 0 0 0 0 0
0 0 0 0 0 0 0 0 0 0 0 0 0 0 0 0 0 0 0 0 0 0 0 0 0 0 0 0 0 0 0 0 0 0 0 0 0 0 0 0 0 0 0
0 0 0 0 0 0 0 0 0 0 0 0 0 0 0 0 0 0 0 0 0 0 0 0 0 0 0 0 0 0 0 0 0 0 0 0 0 0 0 0 0 0 0
0 0 0 0 0 0 0 0 0 0 0 0 0 0 0 0 0 0 0 0 0 0 0 0 0 0 0 0 0 0 0 0 0 0 0 0 0 0 0 0 0 0 0
Wind_Speed
2 3 2 2 2 2 2 2 2 3 3 3 3 3 3 2 2 2 3 6 7 6 6 6 5 5 5 5 5 5 5 5 5 5 5 5 4 3 4 4 3 4 4
2 2 2 2 2 2 2 2 2 2 2 2 3 3 2 2 2 2 2 3 6 7 6 5 5 5 5 6 6 6 5 4 4 4 4 4 3 3 3 3 4 2 2
3 2 2 2 2 2 2 2 2 2 2 2 2 2 2 2 1 2 2 2 2 5 6 6 5 4 5 4 5 5 5 5 4 3 3 3 3 2 2 3 3 3 3
3 2 2 2 2 2 1 1 1 1 1 1 1 1 1 1 1 1 1 2 2 2 4 6 6 5 5 5 4 4 4 5 4 4 3 3 3 2 2 2 2 2 2
3 2 2 2 2 2 1 1 1 1 1 1 1 1 0 0 0 1 1 1 1 2 2 3 5 5 5 4 4 4 4 4 4 4 3 3 3 3 2 1 1 2 2
3 2 2 2 2 2 2 1 1 1 1 1 1 1 0 1 1 1 1 0 1 1 1 1 1 2 4 4 3 3 3 3 3 3 3 3 2 3 3 2 2 2 2
3 2 2 2 2 2 2 2 2 2 1 1 1 1 1 1 1 1 1 1 0 0 1 2 1 1 1 2 3 3 3 3 3 3 3 3 2 2 2 2 2 2 2
3 3 2 2 2 2 2 2 2 2 1 1 1 1 2 3 2 1 1 1 1 1 1 1 2 2 2 1 2 3 3 3 3 4 4 3 3 2 3 3 3 3 3
4 4 4 3 3 3 3 3 3 3 2 2 2 1 2 2 1 2 3 2 2 1 1 1 2 2 2 2 1 2 4 4 4 4 4 4 3 3 3 3 3 3 3
5 4 5 4 4 3 4 4 4 3 3 3 2 2 2 1 2 2 3 3 3 3 2 2 2 3 2 2 2 3 4 5 5 5 5 5 5 4 4 4 4 4 5
5 5 5 5 5 4 4 4 4 5 4 4 3 3 3 3 4 3 3 3 3 3 3 3 3 3 3 2 2 2 4 5 5 5 5 6 6 6 6 6 5 5 5
4 6 6 6 6 5 5 5 5 6 5 5 5 4 4 3 4 4 4 4 3 3 3 3 3 3 2 2 2 3 3 4 5 5 6 6 6 7 7 7 7 6 6
5 6 6 6 6 6 6 6 6 6 6 6 6 5 5 5 3 4 4 3 4 3 3 4 3 3 2 2 2 3 3 4 5 6 6 7 6 6 7 7 7 6 6
6 6 7 7 7 7 7 7 6 7 6 7 7 6 5 5 4 4 4 4 4 3 4 4 3 4 3 3 3 4 3 4 5 6 6 7 7 6 6 7 7 7 6
5 7 8 8 8 8 8 7 6 7 7 7 7 7 6 5 5 5 5 5 5 5 5 4 4 4 3 3 4 4 5 4 6 6 6 7 7 7 6 7 6 6 6
6 7 8 8 8 8 8 8 8 8 8 8 6 8 7 5 5 5 5 6 6 6 6 3 4 3 4 4 5 6 5 6 6 7 7 7 8 7 7 7 7 6 6
7 7 8 8 9 9 9 9 9 9 10 9 8 9 9 8 6 6 6 6 7 7 7 5 4 4 6 6 5 5 5 5 5 7 7 7 7 7 7 7 7 7 7
7 8 8 9 9 9 10 10 10 10 10 11 10 10 10 8 9 7 7 8 7 7 7 7 5 5 6 6 6 6 5 5 5 6 8 8 8 8 8 8 8 8 7
8 8 8 9 9 10 10 10 11 11 11 11 11 11 11 10 10 8 8 8 7 7 7 6 6 5 4 5 6 6 6 5 5 6 7 8 8 8 8 8 8 7 6
8 8 8 9 9 10 10 10 11 11 11 11 11 11 11 11 12 10 9 10 8 8 7 7 6 5 4 5 5 5 5 5 5 5 5 5 6 7 8 8 7 7 7
8 8 8 9 9 9 9 10 10 11 11 11 11 11 12 13 14 12 9 9 9 8 7 7 6 6 5 5 5 5 5 4 5 4 4 4 4 4 4 6 7 7 7
7 8 9 9 9 8 10 12 11 10 10 11 11 11 11 13 14 16 16 15 13 11 10 8 8 8 8 7 6 5 5 5 5 3 4 4 3 4 4 4 5 7 8
7 8 8 9 9 10 11 13 13 10 10 10 11 10 9 10 13 11 14 16 15 16 15 11 10 10 9 8 7 7 7 7 6 3 4 5 4 5 4 4 6 7 8
7 7 8 8 9 9 11 13 13 11 10 11 11 11 11 11 11 11 10 11 11 12 13 11 10 10 8 8 8 8 7 6 5 4 5 5 5 5 4 5 6 8 9
7 7 7 8 9 9 11 12 12 9 9 11 11 11 11 11 13 14 11 11 10 9 10 12 12 11 11 11 9 6 6 6 6 5 5 5 4 5 5 5 5 8 9
7 7 8 8 9 10 11 12 13 8 9 8 9 10 13 13 14 14 11 11 11 9 8 7 8 9 9 10 12 10 8 7 5 5 5 5 4 3 4 4 4 4 5
Wind_Direction
95 89 87 77 68 68 73 75 84 91 90 84 80 81 82 77 71 73 74 55 47 50 58 64 67 67 71 77 77 75 75 72 67 60 61 69 69 65 58 57 63 68 65
95 95 89 84 75 65 64 73 79 89 95 87 85 82 77 77 69 70 72 77 58 49 49 54 60 66 72 72 71 67 64 64 63 57 52 54 63 59 53 53 49 47 59
106 106 104 94 82 75 77 81 85 82 87 92 91 79 73 69 80 75 70 63 70 56 46 43 48 50 57 62 65 63 57 51 49 47 43 38 40 45 40 43 44 41 41
114 112 109 105 95 100 92 89 101 101 97 93 96 88 77 72 84 81 81 70 54 50 53 41 38 40 44 47 53 56 51 47 43 39 36 26 21 21 15 19 31 29 26
133 126 116 111 124 115 107 95 107 124 128 104 98 101 109 125 127 117 103 86 61 39 33 42 32 30 34 31 36 38 35 34 34 32 29 27 19 6 343 330 350 346 350
149 144 141 129 125 133 129 126 123 118 142 134 128 108 121 181 191 181 183 143 77 39 6 357 358 25 27 18 15 17 11 10 10 11 6 1 359 360 5 332 312 310 309
155 154 156 154 157 156 155 150 150 148 139 153 150 139 150 184 201 193 216 232 216 3 349 338 331 323 332 12 9 359 346 338 340 343 345 339 338 334 335 336 320 313 307
173 178 177 180 177 172 170 167 162 177 177 199 198 184 192 195 193 236 239 245 253 254 272 298 303 303 308 307 3 356 338 319 310 315 318 310 303 303 312 320 319 306 298
190 190 194 198 195 189 190 193 191 195 201 210 232 228 210 218 217 209 230 238 245 261 274 289 295 291 291 293 300 342 331 319 302 297 303 293 289 290 294 297 307 310 303
203 200 199 206 209 210 204 206 207 218 214 210 218 251 274 249 217 220 215 226 238 247 260 269 279 281 278 275 291 318 320 311 298 292 295 294 285 284 288 296 300 298 302
211 209 208 206 211 217 215 214 218 224 222 225 222 222 234 240 235 231 239 237 242 243 250 253 256 260 267 271 269 311 317 306 307 299 293 294 288 280 279 284 286 292 299
215 217 215 215 214 217 218 218 220 227 231 232 232 224 223 228 222 228 238 241 250 248 249 250 249 251 258 265 281 316 308 312 311 312 303 296 297 294 285 280 279 282 289
221 219 218 221 221 219 219 219 220 224 228 230 232 233 232 237 237 235 233 242 255 263 250 242 245 249 253 259 262 299 289 306 309 307 310 304 300 298 295 284 277 276 279
229 226 223 224 228 225 222 219 222 225 226 229 235 238 237 234 231 232 232 232 243 247 244 245 236 237 246 253 270 276 269 289 297 298 300 308 304 293 290 285 282 276 276
235 228 226 227 227 226 225 222 224 225 226 227 230 233 238 236 232 235 233 228 232 240 242 235 233 230 244 253 258 261 264 271 283 286 291 292 301 289 281 281 281 280 276
236 232 230 228 226 225 225 224 226 226 226 228 228 230 234 239 233 231 233 232 235 243 248 237 241 240 245 258 263 262 263 270 268 272 275 280 285 288 277 275 276 278 276
237 234 231 229 227 225 222 224 227 225 226 228 226 228 232 235 236 230 231 230 231 235 243 250 252 244 244 249 253 254 258 258 257 259 262 268 273 279 275 269 270 271 273
242 239 237 234 231 229 226 224 226 227 227 228 229 229 231 229 234 232 229 229 230 232 239 246 248 243 247 247 248 253 260 262 262 262 262 262 267 266 268 267 266 265 265
244 241 238 237 235 233 230 228 228 228 229 231 230 230 230 228 230 231 231 232 231 231 235 240 245 246 249 243 246 252 257 261 263 262 258 256 257 257 260 266 265 264 267
245 243 240 240 238 236 234 231 229 229 231 231 231 231 230 229 230 229 231 232 230 227 227 229 235 235 238 236 239 245 253 255 259 260 259 256 255 259 259 261 265 265 265
249 247 245 244 241 237 233 231 230 230 232 233 233 232 232 233 233 230 229 229 229 226 223 225 228 230 229 225 231 238 248 257 261 258 261 254 251 251 251 253 255 256 258
254 250 245 244 243 239 236 236 237 236 234 234 235 236 235 233 234 234 236 234 233 230 225 225 227 228 228 231 233 234 240 250 257 246 255 263 257 255 255 252 258 263 259
259 254 251 248 247 246 240 238 236 239 237 235 234 235 234 232 233 234 237 235 236 237 233 231 233 232 230 227 227 231 235 242 251 253 254 262 255 257 258 256 259 262 261
259 257 256 254 254 252 243 241 240 239 240 238 236 235 235 234 230 231 234 233 234 235 232 231 234 233 232 227 226 233 240 250 264 252 244 258 258 260 264 257 250 256 260
266 262 261 257 256 256 248 245 243 240 239 239 236 235 235 235 231 231 233 233 234 238 236 235 236 234 231 228 224 222 222 226 245 242 237 248 259 268 268 262 253 254 257
266 264 262 259 258 259 254 248 244 239 238 239 238 235 235 236 232 228 230 230 232 234 230 228 229 230 228 224 223 223 220 223 237 243 228 234 247 258 267 260 259 259 261